Location: Drocourt
(49.0571°N, 1.7669°E)
Time: 17:59:00
(UTC+00:00)

USA 215 - Pass Details

Date: 09 February 2023
Orbit: 1097 x 1110 km, 123.0° (Epoch: 24 March)

Event Time Altitude Azimuth Distance (km) Brightness Sun altitude
Exits shadow 19:09:53 - 153° (SSE) 3,217 5.4 -21.2°
Reaches altitude 10° 19:10:37 10° 155° (SSE) 2,954 5.2 -21.3°
Maximum altitude 19:16:47 44° 226° (SW) 1,484 4.2 -22.3°
Drops below altitude 10° 19:22:59 10° 297° (WNW) 2,960 6.4 -23.3°
Sets 19:25:37 0° 304° (NW) 3,919 7.1 -23.8°
